This is the latest recevied weather packets stored in our database for station/object K5OLV. If no packets are shown the sender has not sent any weather packets the latest 10 day(s).
| Time | Temp. | Humidity | Pressure | Rain* | Wind** | Luminosity | Snow |
|---|---|---|---|---|---|---|---|
| 1777621833 | 8.89° C | 76% | 1010.9 hPa | 0 mm | - | 0 W/m² | - |
| 1777621529 | 9.44° C | 76% | 1010.8 hPa | 0 mm | - | 0 W/m² | - |
| 1777621226 | 9.44° C | 74% | 1010.9 hPa | 0 mm | - | 0 W/m² | - |
| 1777620922 | 9.44° C | 76% | 1010.9 hPa | 0 mm | - | 0 W/m² | - |
| 1777620618 | 10° C | 75% | 1010.8 hPa | 0 mm | - | 0 W/m² | - |
| 1777620314 | 10° C | 76% | 1010.7 hPa | 0 mm | - | 0 W/m² | - |
| 1777620011 | 10° C | 73% | 1010.8 hPa | 0 mm | - | 0 W/m² | - |
| 1777619708 | 10° C | 74% | 1010.9 hPa | 0 mm | - | 0 W/m² | - |
| 1777619408 | 10° C | 73% | 1010.7 hPa | 0 mm | - | 0 W/m² | - |
| 1777619102 | 10° C | 71% | 1010.9 hPa | 0 mm | - | 0 W/m² | - |
| 1777618796 | 10.56° C | 74% | 1011.1 hPa | 0 mm | - | 0 W/m² | - |
| 1777618492 | 10° C | 73% | 1011.1 hPa | 0 mm | - | 0 W/m² | - |
| 1777618189 | 9.44° C | 77% | 1011.4 hPa | 0 mm | - | 0 W/m² | - |
| 1777617885 | 10° C | 80% | 1011.3 hPa | 0 mm | - | 0 W/m² | - |
| 1777617581 | 9.44° C | 83% | 1011.4 hPa | 0 mm | - | 0 W/m² | - |
| 1777617277 | 9.44° C | 84% | 1011.7 hPa | 0 mm | - | 0 W/m² | - |
| 1777616975 | 9.44° C | 83% | 1011.6 hPa | 0 mm | - | 0 W/m² | - |
| 1777616670 | 9.44° C | 82% | 1011.5 hPa | 0 mm | - | 0 W/m² | - |
| 1777616365 | 10° C | 83% | 1011.7 hPa | 0 mm | - | 0 W/m² | - |
| 1777616061 | 10° C | 82% | 1011.6 hPa | 0 mm | - | 0 W/m² | - |
| 1777615759 | 10° C | 77% | 1011.4 hPa | 0 mm | - | 0 W/m² | - |
| 1777615456 | 10.56° C | 75% | 1011.5 hPa | 0 mm | - | 0 W/m² | - |
| 1777615154 | 11.11° C | 72% | 1011.5 hPa | 0 mm | - | 0 W/m² | - |
| 1777614851 | 11.11° C | 70% | 1011.9 hPa | 0 mm | - | 0 W/m² | - |
| 1777614548 | 11.11° C | 70% | 1011.7 hPa | 0 mm | - | 0 W/m² | - |
* Rain latest hour (hover to see other rain measurements)
** Current wind speed in m/s (hover to see current wind gust speed)